Location: Bieujac
(44.5398°N, 0.1549°W)
Time: 01:00:37
(UTC+00:00)

STARLINK - Pass Details

Date: 17 November 2019
Orbit: 529 x 530 km, 53.0° (Epoch: 14 December)

Event Time Altitude Azimuth Distance (km) Brightness Sun altitude
Exits shadow 05:43:49 10° 234° (SW) 1,769 5.8 -13.4°
Maximum altitude 05:47:49 87° 149° (SSE) 542 3.5 -12.7°
Drops below altitude 10° 05:51:56 10° 57° (ENE) 1,817 6.9 -12.0°
Sets 05:54:12 0° 57° (ENE) 2,730 7.8 -11.6°
